Wind_Speed
15 14 14 13 13 13 13 14 14 14 14 14 13 13 13 12 11 10 10 10 10 10 11 12 11 11 12 12 13 13 12 11 11 12 13 13 14 14 15 15 16 16 17
17 16 15 15 15 14 14 15 15 16 15 14 14 13 13 12 11 11 10 10 10 10 10 11 11 12 12 12 12 12 12 12 12 12 12 13 14 14 15 15 16 17 17
18 17 17 17 17 16 15 16 16 15 15 15 14 13 12 12 11 11 10 10 10 10 11 11 11 11 11 12 12 12 12 12 13 13 13 13 14 14 15 15 16 17 17
19 18 18 17 17 17 17 17 16 16 15 15 14 13 12 11 11 11 10 11 10 10 12 11 10 10 11 11 12 12 13 12 12 13 14 14 14 14 14 15 15 16 17
19 19 19 18 17 18 18 18 17 17 16 15 14 13 12 11 11 10 11 11 11 11 11 10 9 9 10 10 11 11 11 11 12 12 12 13 14 15 15 15 15 16 16
18 18 19 18 18 18 18 19 19 18 17 16 15 14 12 12 11 11 12 12 12 11 11 10 9 9 9 9 9 9 10 11 11 12 13 13 13 13 14 14 15 16 17
16 17 18 18 18 18 18 18 18 18 17 16 15 14 13 12 12 12 12 12 11 11 11 10 9 9 9 9 9 10 10 10 11 12 13 13 13 13 13 14 14 15 16
16 16 17 18 18 18 18 19 18 17 17 16 15 14 14 13 13 13 13 13 12 12 12 12 11 10 10 10 10 10 10 11 11 11 11 11 12 12 13 14 14 15 16
16 16 16 16 17 18 18 18 18 18 16 15 14 14 14 13 13 14 14 13 13 13 13 12 12 12 11 10 10 10 10 10 10 10 10 10 11 12 13 13 14 15 15
16 16 16 16 17 18 18 18 18 17 17 16 15 14 14 14 13 14 14 14 14 14 14 13 13 13 13 12 11 10 10 10 10 9 10 10 10 11 12 13 13 14 15
17 16 16 17 17 18 18 19 18 18 17 17 16 15 15 14 14 13 14 14 14 14 14 13 13 13 13 12 11 11 10 10 10 9 10 10 10 11 12 13 13 14 14
19 18 17 17 17 17 18 18 17 17 18 17 17 16 15 15 14 13 13 13 13 13 13 12 12 12 11 11 11 11 11 11 11 11 11 10 10 11 11 12 13 13 13
19 19 18 18 18 18 18 18 17 17 17 17 16 16 16 15 13 13 13 13 13 12 12 12 12 11 11 11 11 11 12 12 12 12 12 12 11 11 11 12 12 13 13
20 19 18 18 18 18 18 18 18 17 17 16 15 16 16 15 14 14 13 13 13 13 14 14 13 13 12 12 12 12 13 13 13 13 13 12 12 12 12 12 13 14 14
21 19 19 18 18 17 17 17 17 16 16 16 15 15 16 16 16 15 14 14 14 14 14 14 14 14 14 14 14 14 14 14 14 14 13 13 14 14 13 13 13 13 13
21 20 19 18 18 17 17 16 16 16 16 15 15 15 16 17 16 16 16 15 15 15 15 15 15 15 15 15 16 16 15 15 15 14 14 14 15 15 15 14 14 13 13
21 20 20 19 18 17 16 16 17 17 16 16 16 16 17 17 17 17 17 16 16 16 16 16 16 16 17 17 17 17 16 16 16 16 16 15 15 16 16 15 15 15 14
20 20 20 19 18 18 17 17 17 17 17 17 18 18 18 18 18 18 18 17 16 17 17 17 17 17 18 17 18 18 18 17 17 17 17 17 17 17 16 16 16 16 16
21 20 20 19 19 19 18 18 18 18 19 19 19 19 19 18 18 18 18 18 18 18 18 19 19 19 19 19 19 19 18 18 18 18 18 18 18 18 17 17 16 16 17
21 21 20 20 20 20 19 19 19 20 19 20 20 20 19 19 18 19 19 19 19 19 19 20 20 20 19 19 19 19 19 19 19 19 19 19 19 19 19 18 18 18 18
22 22 22 21 21 21 21 20 20 20 20 19 19 19 19 19 19 19 19 19 19 20 20 20 20 19 19 19 19 20 20 19 19 20 20 20 20 20 19 20 19 20 19
23 22 22 22 22 22 22 22 21 21 20 20 19 19 19 19 20 20 20 19 20 20 20 20 20 20 20 20 19 20 20 20 20 20 21 21 20 20 20 21 20 20 20
23 23 23 22 22 22 22 22 22 21 21 21 20 20 20 20 20 19 20 20 20 21 21 21 21 21 21 21 20 20 20 20 21 21 21 21 21 21 21 20 20 21 21
25 24 24 24 24 23 23 23 22 23 23 22 21 21 20 20 20 20 20 20 21 21 21 21 21 21 21 21 20 20 20 21 21 21 21 21 21 21 21 21 21 21 21
25 25 25 25 25 24 24 23 23 22 21 21 21 21 21 21 21 21 21 21 21 22 22 22 22 21 21 21 21 20 21 21 21 21 21 21 21 21 21 21 21 21 21
24 25 25 25 25 25 25 24 24 23 22 21 22 22 22 22 22 22 21 21 21 21 21 22 22 21 21 22 21 21 21 21 21 21 21 21 22 22 21 21 22 23 23
Wind_Direction
269 271 274 278 279 282 288 291 295 298 298 298 299 298 292 290 290 287 282 280 279 274 269 265 262 263 263 265 266 261 258 257 257 254 252 254 258 260 259 259 260 259 258
268 270 272 275 278 281 286 291 293 294 296 297 296 296 290 287 285 285 282 280 278 275 269 263 262 264 263 262 265 263 261 258 255 254 253 253 256 261 260 261 260 258 258
267 269 272 274 276 280 286 290 291 292 291 295 298 296 290 286 281 279 275 273 274 274 272 269 267 264 262 261 264 262 262 261 257 255 255 256 259 261 260 261 261 258 258
265 265 268 272 274 278 283 287 289 288 288 292 297 294 288 284 281 276 273 272 271 273 272 270 272 268 267 265 267 264 262 259 260 258 258 259 260 261 261 261 260 256 257
264 265 266 269 273 277 280 281 282 284 287 290 291 290 286 280 279 274 273 275 274 272 273 272 268 265 268 270 270 268 264 264 265 263 261 259 260 261 262 261 260 258 258
263 265 266 267 270 276 278 279 281 281 283 285 286 287 284 275 273 274 275 275 275 269 269 271 265 264 269 270 269 267 266 268 268 265 262 262 262 263 262 263 263 262 261
264 265 265 265 268 271 273 276 280 279 281 282 282 281 281 276 272 272 274 276 275 274 272 269 268 266 268 269 269 266 266 271 272 268 264 263 263 262 261 263 264 264 263
263 266 265 263 265 267 270 274 276 278 278 279 278 276 277 276 272 270 271 273 274 274 273 270 268 267 267 268 269 267 268 274 273 270 266 264 263 262 262 263 265 264 264
260 261 262 263 264 267 270 273 275 277 277 277 276 276 276 275 272 269 268 270 272 273 274 269 266 265 265 266 269 270 272 274 275 272 269 267 267 264 263 264 266 268 265
263 262 261 263 267 267 268 271 272 275 274 272 273 274 275 276 274 269 268 268 270 270 270 268 266 266 264 265 266 270 276 277 276 276 273 272 274 271 267 266 267 267 266
262 263 263 266 268 266 267 270 270 272 273 271 271 273 272 271 271 269 268 267 269 268 265 264 263 261 262 265 265 269 272 273 276 278 279 279 277 276 272 267 266 267 266
263 266 265 265 267 269 268 267 267 270 270 269 270 269 270 270 267 267 269 269 269 264 261 258 259 262 261 261 267 270 271 273 273 275 278 279 278 280 276 272 270 268 267
264 266 265 265 268 271 268 266 266 267 266 265 267 266 266 268 266 265 264 264 263 262 259 255 256 255 257 263 269 272 273 276 275 277 276 274 275 279 277 276 273 271 271
262 262 264 265 269 272 269 264 264 262 262 263 265 265 267 266 268 269 263 261 262 263 260 258 254 256 259 264 269 274 276 277 277 276 275 275 276 279 279 279 275 272 271
259 260 263 266 269 270 266 261 259 258 259 261 264 265 267 269 268 271 268 266 264 264 263 257 256 258 261 265 270 273 273 275 276 275 274 276 279 282 281 284 280 278 276
257 258 261 263 266 266 266 263 259 260 261 261 262 264 266 268 269 271 268 266 265 262 258 259 260 260 262 266 269 271 272 272 274 274 273 277 279 281 284 285 282 280 280
257 258 260 260 262 263 263 262 262 260 258 259 262 265 268 267 267 268 267 265 264 260 260 262 265 265 265 268 270 272 272 270 273 274 274 275 279 280 282 283 279 280 280
257 258 259 259 260 260 261 262 262 259 260 263 265 266 267 266 265 266 264 262 262 263 264 266 266 266 268 269 270 271 271 271 274 274 275 275 277 279 281 281 280 279 279
256 257 258 258 258 259 261 261 262 263 263 264 267 267 268 265 266 267 266 262 263 265 265 266 267 268 269 269 270 269 269 272 274 275 276 277 279 278 278 278 278 279 278
255 256 258 258 259 260 263 264 264 265 265 265 265 266 267 267 268 268 265 262 262 264 264 265 268 267 267 268 268 268 270 271 272 275 276 277 278 279 279 277 277 276 275
253 256 259 259 259 261 262 264 264 265 264 262 263 264 266 267 268 267 263 262 263 263 263 265 265 265 267 268 268 269 271 273 273 275 277 278 277 276 276 276 276 276 277
254 256 259 259 259 260 262 262 263 263 262 262 262 265 266 267 268 266 264 264 264 263 263 264 264 264 267 269 270 270 271 273 274 276 277 277 275 274 274 275 276 277 277
253 255 257 258 259 260 261 261 262 261 260 260 261 262 263 265 266 267 268 267 265 265 265 264 264 265 267 268 269 270 270 271 274 276 276 276 276 275 275 276 275 276 276
250 253 256 256 258 260 261 260 259 258 258 259 259 261 262 264 267 268 271 270 267 265 264 266 266 265 266 267 269 269 271 272 274 276 276 275 276 275 275 274 274 275 276
250 252 254 255 257 258 260 258 257 256 256 256 258 260 262 265 267 269 270 270 269 265 266 267 267 265 265 267 268 269 272 273 276 278 278 276 276 276 275 275 273 274 277
250 252 254 256 257 257 256 255 256 255 257 258 259 261 262 264 266 268 268 270 272 269 268 268 267 266 267 267 268 270 273 274 276 277 278 277 276 276 276 277 276 276 278
Height
5875 5875 5875 5874 5873 5873 5872 5871 5869 5868 5866 5864 5862 5861 5859 5858 5857 5856 5855 5855 5854 5854 5854 5854 5854 5853 5853 5853 5853 5853 5853 5853 5853 5854 5854 5854 5854 5855 5855 5855 5855 5856 5856
5872 5872 5871 5871 5870 5870 5869 5868 5866 5865 5863 5861 5860 5858 5856 5855 5854 5854 5853 5852 5852 5852 5852 5851 5851 5851 5851 5850 5850 5850 5850 5850 5850 5850 5851 5851 5852 5851 5851 5851 5852 5852 5852
5868 5868 5868 5867 5867 5866 5866 5864 5863 5861 5860 5858 5857 5855 5854 5853 5852 5851 5851 5850 5850 5849 5849 5849 5848 5848 5848 5847 5847 5847 5847 5847 5847 5847 5848 5848 5848 5848 5848 5848 5848 5848 5848
5864 5864 5864 5864 5863 5863 5862 5861 5860 5858 5857 5855 5854 5853 5851 5850 5849 5849 5848 5848 5847 5847 5846 5846 5845 5845 5845 5845 5844 5844 5844 5844 5844 5844 5844 5844 5844 5844 5844 5844 5844 5844 5845
5859 5859 5859 5860 5859 5859 5858 5857 5856 5855 5854 5852 5851 5850 5849 5848 5847 5846 5846 5845 5845 5844 5844 5843 5843 5842 5842 5842 5842 5841 5841 5841 5841 5840 5840 5840 5840 5840 5840 5840 5841 5841 5841
5855 5855 5855 5855 5855 5855 5854 5853 5852 5851 5850 5849 5848 5847 5846 5845 5844 5844 5843 5843 5842 5841 5841 5841 5840 5840 5840 5839 5839 5838 5838 5838 5837 5837 5837 5836 5836 5836 5836 5836 5836 5837 5837
5850 5850 5851 5851 5850 5850 5850 5849 5848 5847 5846 5846 5845 5844 5843 5842 5842 5841 5841 5840 5840 5839 5838 5838 5838 5837 5837 5837 5836 5836 5835 5835 5834 5833 5833 5833 5833 5833 5833 5833 5832 5833 5833
5846 5846 5846 5846 5846 5846 5846 5845 5845 5844 5843 5842 5841 5840 5840 5839 5838 5838 5838 5838 5837 5836 5836 5835 5835 5835 5834 5834 5833 5833 5832 5832 5831 5830 5829 5829 5829 5829 5829 5829 5829 5829 5829
5841 5842 5842 5842 5841 5842 5841 5841 5841 5840 5839 5838 5837 5837 5836 5835 5835 5835 5834 5834 5834 5833 5833 5833 5832 5832 5832 5831 5831 5830 5830 5829 5828 5827 5827 5826 5826 5826 5826 5826 5825 5825 5825
5837 5837 5837 5837 5837 5837 5837 5837 5836 5836 5835 5835 5834 5833 5832 5832 5831 5831 5831 5831 5830 5830 5829 5829 5829 5829 5829 5829 5828 5828 5827 5826 5825 5824 5824 5824 5823 5823 5823 5822 5822 5821 5821
5832 5832 5832 5832 5832 5832 5832 5832 5831 5831 5831 5830 5830 5830 5829 5828 5828 5827 5827 5827 5826 5826 5826 5826 5826 5826 5825 5825 5825 5825 5824 5824 5823 5822 5822 5821 5820 5820 5819 5819 5819 5818 5817
5827 5827 5827 5827 5827 5827 5827 5827 5827 5826 5826 5826 5826 5825 5825 5824 5824 5824 5823 5823 5822 5822 5822 5823 5823 5822 5822 5822 5822 5822 5822 5821 5821 5820 5819 5818 5818 5817 5816 5816 5815 5815 5814
5822 5822 5822 5822 5822 5822 5822 5822 5822 5822 5822 5822 5822 5822 5821 5821 5820 5820 5819 5819 5819 5819 5819 5820 5820 5820 5820 5820 5820 5819 5819 5819 5818 5817 5817 5816 5815 5815 5814 5813 5812 5812 5811
5817 5817 5817 5818 5817 5817 5817 5817 5817 5817 5817 5818 5818 5818 5817 5817 5817 5817 5816 5816 5816 5816 5816 5817 5817 5817 5817 5817 5817 5816 5816 5816 5815 5814 5814 5813 5812 5812 5811 5810 5809 5809 5808
5811 5812 5812 5813 5813 5812 5812 5812 5812 5813 5813 5814 5814 5814 5813 5813 5813 5813 5813 5813 5812 5812 5813 5813 5813 5814 5814 5814 5814 5813 5813 5812 5812 5811 5811 5810 5809 5809 5808 5807 5806 5805 5805
5805 5806 5807 5807 5808 5808 5807 5808 5808 5808 5809 5809 5809 5809 5809 5809 5809 5809 5809 5809 5809 5809 5809 5809 5809 5810 5810 5810 5810 5810 5809 5809 5808 5808 5807 5807 5806 5805 5804 5803 5803 5802 5801
5800 5801 5802 5802 5802 5803 5803 5803 5803 5804 5804 5805 5805 5805 5805 5805 5805 5805 5804 5804 5805 5805 5805 5805 5805 5805 5805 5806 5805 5805 5805 5805 5804 5804 5803 5803 5802 5801 5801 5800 5799 5798 5798
5795 5795 5796 5797 5797 5798 5798 5798 5798 5799 5799 5800 5800 5800 5800 5800 5800 5800 5800 5800 5800 5801 5801 5801 5801 5801 5801 5801 5801 5801 5800 5800 5800 5800 5799 5799 5798 5797 5796 5795 5795 5794 5793
5789 5790 5791 5792 5792 5792 5793 5793 5793 5794 5794 5794 5795 5795 5795 5795 5795 5795 5795 5795 5796 5796 5796 5796 5796 5796 5796 5796 5796 5796 5795 5795 5795 5795 5794 5794 5793 5792 5792 5791 5790 5789 5789
5783 5784 5785 5786 5787 5787 5787 5788 5788 5788 5788 5788 5789 5789 5790 5790 5790 5790 5790 5790 5791 5791 5791 5791 5791 5791 5791 5791 5790 5790 5790 5790 5790 5790 5789 5788 5788 5787 5786 5786 5785 5784 5784
5777 5778 5779 5780 5781 5781 5781 5781 5782 5782 5782 5782 5783 5783 5783 5784 5784 5784 5784 5785 5785 5785 5785 5785 5786 5786 5786 5786 5785 5785 5785 5785 5784 5784 5783 5783 5782 5782 5781 5780 5780 5779 5778
5771 5772 5773 5774 5775 5775 5775 5775 5775 5775 5775 5776 5776 5777 5777 5778 5778 5778 5778 5779 5779 5779 5780 5780 5780 5780 5780 5780 5780 5780 5780 5779 5779 5779 5778 5777 5777 5776 5775 5775 5774 5773 5772
5764 5765 5766 5767 5768 5768 5769 5769 5769 5769 5769 5770 5770 5771 5771 5772 5772 5772 5772 5772 5773 5773 5774 5774 5774 5774 5774 5774 5774 5774 5774 5774 5773 5773 5772 5771 5771 5770 5769 5769 5768 5767 5766
5757 5758 5759 5760 5761 5762 5762 5762 5762 5762 5763 5763 5764 5765 5765 5766 5766 5766 5766 5766 5767 5767 5767 5767 5767 5768 5768 5768 5768 5768 5768 5767 5767 5766 5766 5765 5764 5764 5763 5762 5761 5761 5760
5750 5751 5752 5753 5753 5754 5755 5755 5755 5756 5756 5757 5758 5758 5759 5759 5760 5760 5760 5760 5760 5761 5761 5761 5761 5761 5762 5762 5762 5761 5761 5761 5761 5760 5759 5759 5758 5757 5757 5756 5755 5754 5754
5742 5743 5744 5745 5746 5746 5747 5748 5748 5749 5750 5751 5751 5752 5753 5753 5753 5754 5754 5754 5754 5755 5755 5755 5755 5755 5755 5755 5755 5755 5755 5754 5754 5753 5753 5752 5752 5751 5750 5749 5748 5748 5747